Погода в Висленеве Острове

Россия / Новгородская область     58°42′07″N   33°05′08″E
темп.,
°C
ветер,
м/с
пор.,
м/с
влажн.,
%
обл.,
%
осадки,
мм/ч
давл.,
гПа
погр.,
м
6 марта, сб
сб600:00−7сз2695100 0.5 1015346
03:00−9зсз229783 0.7 101642
06:00−10з239893 0.1 1016120
09:00−9з259485 0.1 1016222
12:00−5зюз357585 0.0 1015746
15:00−3юз586642 0.0 10121152
18:00−5ююз4116960 0.0 10081040
21:00−5ююз7159080 0.3 10031237
7 марта, вс
вс700:00−3юз71592100 1.7 9961190
03:00−2юз71494100 3.5 9921080
06:00−4з51188100 2.3 9891142
09:00−6сз3686100 2.5 990571
12:00−5з376267 0.8 9911538
15:00−5зюз587883 1.4 9911049
18:00−6з3883100 0.3 991521
21:00−8с51193100 0.8 993887
8 марта, пн
пн800:00−10ссз4990100 0.2 995397
03:00−12зсз399793 0.2 998308
06:00−9ссз51092100 0.4 1000763
09:00−11ссз51188100 0.6 1003730
12:00−10ссз5884100 0.1 1006762
15:00−11ссз5885100 0.2 1009662
18:00−13ссз4990100 0.1 1011556
21:00−16ссз3995100 0.1 1014462
9 марта, вт
вт900:00−17ссз2698100 0.1 1016269
03:00−19сз2299100 0.1 101760
06:00−20ссз129948 0.0 101822
09:00−18в119047 0.0 1018117
12:00−13св1173100 0.0 1018360
15:00−12св2270100 0.0 1018526
18:00−13св238745 0.0 101881
21:00−17всв379322 0.0 1020181
10 марта, ср
ср1000:00−19всв27940 0.0 1022150
03:00−21всв23920 0.0 102474
06:00−22всв22920 0.0 102531
09:00−21всв23870 0.0 1026178
12:00−15в23730 0.0 1026492
15:00−12в23635 0.0 1026829
18:00−11юв5993100 0.4 1011368
21:00−11юв5993100 1.1 1009317